Weather History for KPNE - January, 2014

Change the Weather History Date:

Wednesday, January 1, 2014

  Actual Average Record
Temperature  
Mean Temperature 32 °F -  
Max Temperature 39 °F 40 °F 64 °F (2005)
Min Temperature 24 °F 27 °F 14 °F (1997)
Degree Days  
Heating Degree Days 34    
Moisture  
Dew Point 18 °F    
Average Humidity 56    
Maximum Humidity 72    
Minimum Humidity 45    
Precipitation  
Precipitation 0.00 in - - ()
Sea Level Pressure  
Sea Level Pressure 30.35 in    
Wind  
Wind Speed 3 mph (SE)    
Max Wind Speed 9 mph    
Max Gust Speed -    
Visibility 10 miles    
Events      
Averages and records for this station are not official NWS values.
T = Trace of Precipitation, MM = Missing Value Source: NWS Daily Summary

Daily Weather History Graph

Daily Weather History Graph

Search for Another Location

Airport or City:

Trip Planner

Search our weather history database for the weather conditions in past years. The results will help you decide how hot, cold, wet, or windy it might be!

Date:

Astronomy

Jan. 01, 2014 Rise Set
Actual Time 7:22 AM EST 4:45 PM EST
Civil Twilight 6:51 AM EST 5:15 PM EST
Nautical Twilight 6:17 AM EST 5:49 PM EST
Astronomical Twilight 5:44 AM EST 6:22 PM EST
Moon 7:10 AM EST (1/1) 5:27 PM EST (1/1)
Length of Visible Light 10h 24m
Length of Day
9h 23m
New Moon, 0% of the Moon is Illuminated
Jan 1
New Moon
Jan 7
First Quarter
Jan 15
Full
Jan 24
Last Quarter
Jan 30
New

Hourly Weather History & Observations

Time (EST) Temp. Windchill Dew Point Humidity Pressure Visibility Wind Dir Wind Speed Gust Speed Precip Events Conditions
12:54 AM 26.1 °F 20.5 °F 10.0 °F 51% 30.35 in 10.0 mi WNW 4.6 mph - N/A   Clear
1:54 AM 25.0 °F - 12.0 °F 58% 30.37 in 10.0 mi Calm Calm - N/A   Clear
2:54 AM 24.1 °F - 12.9 °F 62% 30.39 in 10.0 mi Calm Calm - N/A   Mostly Cloudy
3:54 AM 27.0 °F 23.0 °F 14.0 °F 58% 30.40 in 10.0 mi WSW 3.5 mph - N/A   Overcast
4:54 AM 27.0 °F - 14.0 °F 58% 30.40 in 10.0 mi Calm Calm - N/A   Overcast
5:54 AM 27.0 °F - 14.0 °F 58% 30.40 in 10.0 mi Calm Calm - N/A   Mostly Cloudy
6:54 AM 25.0 °F - 17.1 °F 72% 30.41 in 10.0 mi Calm Calm - N/A   Clear
7:54 AM 27.0 °F - 16.0 °F 63% 30.42 in 10.0 mi Calm Calm - N/A   Clear
8:54 AM 28.0 °F 24.2 °F 16.0 °F 61% 30.43 in 10.0 mi SSW 3.5 mph - N/A   Clear
9:54 AM 30.9 °F 25.2 °F 17.1 °F 57% 30.45 in 10.0 mi SW 5.8 mph - N/A   Clear
10:54 AM 34.0 °F 28.8 °F 17.1 °F 50% 30.44 in 10.0 mi SSW 5.8 mph - N/A   Clear
11:54 AM 37.9 °F 33.5 °F 19.0 °F 47% 30.40 in 10.0 mi SW 5.8 mph - N/A   Clear
12:54 PM 37.9 °F 32.7 °F 19.0 °F 47% 30.37 in 10.0 mi SW 6.9 mph - N/A   Clear
1:54 PM 39.0 °F 36.8 °F 19.9 °F 46% 30.34 in 10.0 mi South 3.5 mph - N/A   Clear
2:54 PM 39.9 °F - 19.9 °F 45% 30.32 in 10.0 mi Calm Calm - N/A   Clear
3:54 PM 39.9 °F - 19.9 °F 45% 30.32 in 10.0 mi Calm Calm - N/A   Clear
4:54 PM 37.9 °F - 19.9 °F 48% 30.32 in 10.0 mi Calm Calm - N/A   Clear
5:54 PM 36.0 °F 31.1 °F 21.9 °F 57% 30.31 in 10.0 mi NNE 5.8 mph - N/A   Partly Cloudy
6:54 PM 34.0 °F 29.8 °F 21.0 °F 59% 30.32 in 10.0 mi NE 4.6 mph - N/A   Clear
7:54 PM 33.1 °F 26.9 °F 21.0 °F 61% 30.30 in 10.0 mi ENE 6.9 mph - N/A   Clear
8:54 PM 33.1 °F 25.5 °F 19.9 °F 59% 30.28 in 10.0 mi NE 9.2 mph - N/A   Clear
9:54 PM 33.1 °F 26.1 °F 21.0 °F 61% 30.27 in 10.0 mi ENE 8.1 mph - N/A   Clear
10:54 PM 33.1 °F 26.1 °F 21.9 °F 64% 30.25 in 10.0 mi NE 8.1 mph - N/A   Overcast
11:54 PM 34.0 °F 26.6 °F 23.0 °F 64% 30.23 in 10.0 mi ENE 9.2 mph - N/A   Overcast